Simultaneous Nadir Overpasses (SNOs) Predictions

Prediction of SNOs between AQUA and METOP-C Satellite Orbit:

Table of predicted SNOs for the next 14.0 days since TLE Epoch: 3/1/2019
Index Date (AQUA) Time (AQUA) Lat,Lon (AQUA) SZA (AQUA ) Date (METOP-C) Time (METOP-C) Lat,Lon (METOP-C) SZA (METOP-C ) Distance(km) Time Diff (sec)
1 03/03/2019 07:22:51 73.80, 63.61 80.79 03/03/2019 07:22:22 73.78, 63.60 80.78 1.58 29
2 03/03/2019 08:12:18 -73.84,-128.85 99.18 03/03/2019 08:13:02 -73.87,-128.87 99.16 3.31 44
3 03/06/2019 02:07:27 -73.11, -36.15 101.03 03/06/2019 02:06:21 -73.06, -38.97 100.94 91.31 66
4 03/06/2019 02:57:07 73.80, 130.04 79.70 03/06/2019 02:56:46 73.81, 130.06 79.72 1.38 21
5 03/06/2019 03:46:35 -73.89, -62.52 100.22 03/06/2019 03:47:26 -73.89, -62.41 100.23 3.21 51
6 03/08/2019 21:41:48 -73.43, 29.64 101.79 03/08/2019 21:40:38 -73.39, 28.15 101.76 47.59 70
7 03/08/2019 22:31:22 73.80,-163.53 78.61 03/08/2019 22:31:10 73.79,-163.59 78.59 2.65 12
8 03/08/2019 23:20:50 -73.89, 3.92 101.32 03/08/2019 23:21:50 -73.86, 3.93 101.36 2.82 60
9 03/11/2019 17:16:10 -73.74, 95.40 102.56 03/11/2019 17:14:56 -73.71, 95.30 102.58 5.34 74
10 03/11/2019 18:05:38 73.81, -97.11 77.50 03/11/2019 18:05:34 73.81, -97.12 77.51 0.38 4
11 03/11/2019 18:55:06 -73.89, 70.35 102.42 03/11/2019 18:56:14 -73.89, 70.38 102.45 1.44 68
12 03/14/2019 12:50:26 -73.75, 161.82 103.67 03/14/2019 12:49:19 -73.78, 161.87 103.63 3.17 67
13 03/14/2019 13:39:54 73.82, -30.69 76.40 03/14/2019 13:39:58 73.84, -30.65 76.42 2.04 4




NCC Satellite Simultaneous Nadir Overpasses (SNOs) Prediction Service
